DW6702 Weather Reports


Display with metric or nautical units.
time (UTC)temp
F
wind
direction
speed
MPH
gust
MPH
rain 1hr
in
rain 24hr
in
rain mn
in
humidity
%
barometer
mb
20201031022323 53 282 1.0 3.0 0.00 0.20 0.20 70 1024.7
20201031021317 53 286 2.0 4.0 0.00 0.20 0.20 69 1024.6
20201031020334 53 2 2.0 4.0 0.00 0.20 0.20 69 1024.4
20201031015325 54 224 1.0 3.0 0.00 0.20 0.20 70 1024.2
20201031014314 54 199 2.0 3.0 0.00 0.20 0.20 70 1024.1
20201031013337 54 279 1.0 3.0 0.00 0.20 0.20 70 1023.8
20201031012322 55 293 2.0 4.0 0.00 0.20 0.20 69 1023.6
20201031011317 55 281 1.0 4.0 0.00 0.20 0.20 68 1023.4
20201031010328 55 279 2.0 5.0 0.00 0.20 0.20 68 1023.1
20201031005326 55 283 2.0 4.0 0.00 0.20 0.20 70 1022.9
20201031004323 55 276 1.0 3.0 0.00 0.20 0.20 71 1022.7
20201031003331 55 293 1.0 3.0 0.00 0.20 0.20 72 1022.5
20201031002334 54 272 1.0 3.0 0.00 0.20 0.20 75 1022.3
20201031001316 52 257 0.0 1.0 0.00 0.20 0.20 80 1022.0
20201031000336 53 257 0.0 0.0 0.00 0.20 0.20 81 1021.8
20201030235323 54 257 0.0 1.0 0.00 0.20 0.20 77 1021.6
20201030234317 55 257 0.0 1.0 0.00 0.20 0.20 74 1021.3
20201030233329 56 257 0.0 1.0 0.00 0.20 0.20 73 1021.0
20201030232321 55 255 0.0 1.0 0.00 0.20 0.20 76 1020.8
20201030231414 55 255 0.0 1.0 0.00 0.20 0.20 72 1020.7
20201030230331 56 255 0.0 1.0 0.00 0.20 0.20 73 1020.4
20201030225322 57 255 0.0 1.0 0.00 0.20 0.20 76 1020.2
20201030224335 58 255 0.0 0.0 0.00 0.20 0.20 69 1020.1
20201030223322 59 262 0.0 0.0 0.00 0.20 0.20 64 1019.8
20201030222335 61 262 0.0 2.0 0.00 0.20 0.20 62 1019.5
20201030221332 62 271 2.0 5.0 0.00 0.20 0.20 58 1019.3
20201030220339 62 261 1.0 4.0 0.00 0.20 0.20 57 1019.0
20201030215332 63 301 2.0 6.0 0.00 0.20 0.20 55 1018.9
20201030214420 64 241 2.0 5.0 0.00 0.20 0.20 55 1018.7
20201030212332 66 298 2.0 3.0 0.00 0.20 0.20 52 1018.4
20201030211327 66 291 2.0 5.0 0.00 0.20 0.20 51 1018.2
20201030210319 66 300 3.0 7.0 0.00 0.20 0.20 50 1018.1
20201030205333 67 293 2.0 6.0 0.00 0.20 0.20 50 1018.0
20201030204325 67 331 1.0 5.0 0.00 0.20 0.20 50 1017.7
20201030203325 67 283 2.0 6.0 0.00 0.20 0.20 49 1017.6
20201030202313 67 298 3.0 6.0 0.00 0.20 0.20 49 1017.4
20201030201325 68 311 3.0 6.0 0.00 0.20 0.20 49 1017.2
20201030200333 68 290 2.0 6.0 0.00 0.20 0.20 49 1017.0
20201030195318 68 265 2.0 10.0 0.00 0.20 0.20 48 1016.8
20201030194326 68 303 2.0 6.0 0.00 0.20 0.20 50 1016.7
20201030193320 68 331 2.0 7.0 0.00 0.20 0.20 50 1016.7
20201030192317 68 278 5.0 10.0 0.00 0.20 0.20 50 1016.6
20201030191327 68 269 2.0 5.0 0.00 0.20 0.20 52 1016.5
20201030190318 68 276 3.0 9.0 0.00 0.20 0.20 52 1016.5
20201030185317 68 181 3.0 8.0 0.00 0.20 0.20 51 1016.5
20201030184327 68 208 2.0 8.0 0.00 0.20 0.20 53 1016.3
20201030183321 68 319 2.0 7.0 0.00 0.20 0.20 52 1016.2
20201030182339 67 209 4.0 8.0 0.00 0.20 0.20 52 1016.1
20201030181327 68 234 5.0 13.0 0.00 0.20 0.20 52 1016.2
20201030180319 67 155 4.0 13.0 0.00 0.20 0.20 55 1016.0
20201030175335 67 305 4.0 10.0 0.00 0.22 0.20 55 1015.9
20201030174329 66 331 2.0 8.0 0.00 0.22 0.20 61 1015.9
20201030173320 65 351 3.0 8.0 0.00 0.22 0.20 62 1015.8
20201030172319 66 264 3.0 9.0 0.00 0.22 0.20 62 1015.7
20201030171345 66 147 4.0 10.0 0.00 0.22 0.20 67 1015.6
20201030165317 65 274 3.0 10.0 0.00 0.22 0.20 65 1015.7
20201030164328 65 312 2.0 7.0 0.00 0.22 0.20 69 1015.6
20201030163321 63 203 2.0 7.0 0.00 0.22 0.20 71 1015.6
20201030162316 63 113 2.0 6.0 0.00 0.22 0.20 69 1015.4
20201030161328 63 300 4.0 7.0 0.00 0.22 0.20 68 1015.4
20201030160320 63 285 3.0 7.0 0.00 0.22 0.20 70 1015.2
20201030155332 64 306 4.0 11.0 0.00 0.22 0.20 68 1015.1
20201030154324 64 279 5.0 10.0 0.00 0.22 0.20 68 1015.0
20201030153320 63 287 4.0 9.0 0.00 0.22 0.20 69 1014.8
20201030152331 63 261 3.0 8.0 0.00 0.22 0.20 74 1014.6
20201030151344 63 313 4.0 8.0 0.00 0.22 0.20 72 1014.2
20201030150323 63 285 3.0 7.0 0.00 0.22 0.20 75 1014.1
20201030145335 62 267 3.0 7.0 0.00 0.22 0.20 75 1013.9
20201030144331 62 100 3.0 7.0 0.00 0.22 0.20 78 1013.7
20201030143320 61 313 3.0 9.0 0.00 0.22 0.20 79 1013.6
20201030142312 61 307 2.0 5.0 0.00 0.22 0.20 82 1013.4
20201030141326 60 330 3.0 7.0 0.00 0.22 0.20 83 1013.2
20201030140330 59 299 4.0 9.0 0.00 0.22 0.20 85 1013.1
20201030135326 59 289 3.0 7.0 0.00 0.22 0.20 86 1013.2
20201030134329 59 222 2.0 7.0 0.00 0.22 0.20 87 1012.8
20201030133323 58 288 2.0 5.0 0.00 0.22 0.20 88 1012.7
20201030132314 58 219 2.0 6.0 0.00 0.22 0.20 89 1012.5
20201030131327 58 292 2.0 5.0 0.00 0.22 0.20 89 1012.1
20201030130326 57 310 2.0 5.0 0.00 0.22 0.20 91 1011.6
20201030125317 57 283 2.0 4.0 0.00 0.22 0.20 91 1011.0
20201030124330 57 281 1.0 4.0 0.00 0.22 0.20 91 1010.8
20201030123318 57 301 3.0 5.0 0.00 0.22 0.20 91 1010.4
20201030122317 57 252 2.0 7.0 0.00 0.22 0.20 92 1010.0
20201030121327 58 278 2.0 6.0 0.00 0.22 0.20 92 1009.7
20201030120334 58 229 2.0 6.0 0.00 0.22 0.20 92 1009.3
20201030115333 59 177 2.0 5.0 0.00 0.22 0.20 92 1008.8
20201030114329 60 240 1.0 7.0 0.00 0.22 0.20 92 1008.3
20201030113320 61 248 2.0 7.0 0.00 0.22 0.20 92 1008.0
20201030112349 62 290 2.0 7.0 0.00 0.22 0.20 91 1007.7
20201030111332 63 215 2.0 4.0 0.00 0.22 0.20 93 1006.9
20201030110321 64 171 2.0 5.0 0.00 0.22 0.20 93 1006.4
20201030105313 64 192 1.0 3.0 0.00 0.22 0.20 94 1005.8
20201030104325 64 236 1.0 3.0 0.00 0.22 0.20 93 1005.3
20201030103323 65 215 1.0 6.0 0.00 0.22 0.20 93 1005.1
20201030102316 65 215 1.0 4.0 0.00 0.22 0.20 93 1004.9
20201030101328 66 238 2.0 6.0 0.00 0.22 0.20 94 1004.7
20201030100320 66 6 2.0 8.0 0.00 0.22 0.20 94 1004.4
20201030095317 66 175 0.0 7.0 0.00 0.22 0.20 95 1004.1
20201030094330 66 177 1.0 5.0 0.00 0.22 0.20 95 1003.8
20201030093321 66 167 0.0 4.0 0.00 0.22 0.20 95 1003.4
20201030092317 66 180 1.0 4.0 0.00 0.22 0.20 95 1003.2
20201030091329 67 195 2.0 4.0 0.00 0.22 0.20 94 1002.9
20201030090323 67 210 2.0 8.0 0.00 0.22 0.20 94 1002.9
20201030085314 67 191 2.0 11.0 0.00 0.22 0.20 95 1002.5
20201030084331 67 244 4.0 9.0 0.00 0.22 0.20 95 1002.4
20201030083328 66 165 2.0 7.0 0.00 0.22 0.20 95 1002.2
20201030082317 66 219 4.0 8.0 0.00 0.22 0.20 95 1002.0
20201030081316 66 202 4.0 11.0 0.00 0.22 0.20 95 1001.6
20201030080328 66 160 3.0 10.0 0.00 0.22 0.20 95 1001.7
20201030075322 66 167 3.0 7.0 0.00 0.22 0.20 95 1001.4
20201030074331 66 172 3.0 6.0 0.00 0.22 0.20 95 1000.9
20201030073328 65 182 2.0 4.0 0.01 0.22 0.20 95 1000.8
20201030072319 65 193 2.0 7.0 0.17 0.22 0.20 95 1000.7
20201030071331 66 175 3.0 8.0 0.20 0.22 0.20 94 1000.7
20201030070329 65 177 2.0 7.0 0.20 0.22 0.20 95 1000.5
20201030065320 66 165 3.0 8.0 0.20 0.22 0.20 95 1000.7
20201030064339 66 162 4.0 9.0 0.20 0.22 0.20 94 1000.4
20201030063332 67 189 6.0 24.0 0.19 0.21 0.19 91 1000.7
20201030062320 74 217 11.0 23.0 0.03 0.05 0.03 87 1000.9
20201030061314 75 208 5.0 12.0 0.00 0.02 0.00 90 999.5
20201030060324 75 179 4.0 12.0 0.00 0.02 0.00 90 999.5
20201030055327 75 186 3.0 10.0 0.00 0.02 0.00 91 999.6
20201030054340 75 184 3.0 13.0 0.00 0.02 0.00 92 999.8
20201030053324 74 152 2.0 8.0 0.00 0.02 0.00 92 999.8
20201030052325 74 170 4.0 7.0 0.00 0.02 0.00 92 999.8
20201030051312 74 191 2.0 7.0 0.00 0.02 0.00 92 999.9
20201030050335 74 163 3.0 9.0 0.00 0.02 0.00 91 1000.2
20201030045318 75 174 4.0 12.0 0.00 0.02 0.00 91 1000.5
20201030044317 75 198 5.0 10.0 0.00 0.02 0.00 91 1000.8
20201030043327 75 199 5.0 13.0 0.00 0.02 0.00 91 1000.9
20201030042319 75 169 4.0 11.0 0.00 0.02 0.00 90 1001.1
20201030041330 75 203 8.0 16.0 0.00 0.02 0.00 90 1001.2
20201030040328 75 172 5.0 11.0 0.00 0.02 0.00 90 1001.3
20201030035319 75 179 4.0 9.0 0.00 0.02 0.00 91 1001.2
20201030034332 75 215 6.0 12.0 0.00 0.02 0.00 90 1001.2
20201030033323 75 153 5.0 10.0 0.00 0.02 0.00 91 1001.2
20201030032318 75 151 4.0 13.0 0.00 0.02 0.00 91 1001.2
20201030031332 75 195 5.0 10.0 0.00 0.02 0.00 91 1001.4
20201030030324 75 155 5.0 10.0 0.00 0.02 0.00 91 1001.5
20201030025321 75 164 2.0 11.0 0.00 0.02 0.02 91 1001.7
20201030024312 75 172 3.0 8.0 0.00 0.02 0.02 91 1001.6
20201030023335 75 169 4.0 12.0 0.00 0.02 0.02 91 1001.7